EW4022 Weather Reports


time (UTC)temp
F
wind
direction
speed
knots
gust
knots
rain 1hr
in
rain 24hr
in
rain mn
in
humidity
%
barometer
mb
20260906111050 72 270 0.0 0.0 0.00 0.00 0.00 89 974.4
20260906110546 72 270 0.0 0.0 0.00 0.00 0.00 89 974.4
20260906110055 72 270 0.0 0.0 0.00 0.00 0.00 89 974.3
20260906105545 72 270 0.0 0.0 0.00 0.00 0.00 89 974.2
20260906105045 72 270 0.0 0.0 0.00 0.00 0.00 89 974.2
20260906104543 72 270 0.0 0.0 0.00 0.00 0.00 89 974.3
20260906104044 72 270 0.0 0.0 0.00 0.00 0.00 89 974.2
20260906103543 72 270 0.0 0.0 0.00 0.00 0.00 90 974.3
20260906103044 72 270 0.0 0.0 0.00 0.00 0.00 90 974.4
20260906102543 71 270 0.0 0.0 0.00 0.00 0.00 90 974.3
20260906102042 71 270 0.0 0.0 0.00 0.00 0.00 90 974.3
20260906101542 71 270 0.0 0.0 0.00 0.00 0.00 90 974.2
20260906101041 71 270 0.0 0.0 0.00 0.00 0.00 90 974.2
20260906100541 71 270 0.0 0.0 0.00 0.00 0.00 90 974.2
20260906100048 71 270 0.0 0.0 0.00 0.00 0.00 90 974.1
20260906095541 71 270 0.0 0.9 0.00 0.00 0.00 90 974.1
20260906095040 71 270 0.0 0.9 0.00 0.00 0.00 90 974.1
20260906094546 71 270 0.0 0.0 0.00 0.00 0.00 90 974.1
20260906094039 71 270 0.0 0.0 0.00 0.00 0.00 90 974.1
20260906093539 71 270 0.0 0.0 0.00 0.00 0.00 90 974.0
20260906093053 71 270 0.0 0.0 0.00 0.00 0.00 90 973.9
20260906092539 71 270 0.0 0.0 0.00 0.00 0.00 90 974.0
20260906092039 71 270 0.0 0.9 0.00 0.00 0.00 90 974.0
20260906091538 71 270 0.0 0.9 0.00 0.00 0.00 90 974.0
20260906091038 70 270 0.0 0.0 0.00 0.00 0.00 90 973.9
20260906090539 70 270 0.0 0.0 0.00 0.00 0.00 90 973.8
20260906090107 70 270 0.0 0.0 0.00 0.00 0.00 90 973.7
20260906085540 70 270 0.0 0.0 0.00 0.00 0.00 90 973.7
20260906085040 70 270 0.0 0.0 0.00 0.00 0.00 90 973.7
20260906084540 70 270 0.0 0.0 0.00 0.00 0.00 90 973.6
20260906084038 70 270 0.0 0.0 0.00 0.00 0.00 90 973.6
20260906083536 70 270 0.0 0.0 0.00 0.00 0.00 90 973.5
20260906083041 70 270 0.0 0.0 0.00 0.00 0.00 90 973.5
20260906082536 70 270 0.0 0.0 0.00 0.00 0.00 90 973.4
20260906082036 70 270 0.0 1.7 0.00 0.00 0.00 90 973.3
20260906081536 70 270 0.0 1.7 0.00 0.00 0.00 90 973.2
20260906081036 69 270 0.0 0.0 0.00 0.00 0.00 90 973.3
20260906080534 69 270 0.0 0.0 0.00 0.00 0.00 90 973.3
20260906080035 69 270 0.0 0.0 0.00 0.00 0.00 90 973.3
20260906075535 69 270 0.0 0.0 0.00 0.00 0.00 90 973.2
20260906075035 69 270 0.0 0.0 0.00 0.00 0.00 89 973.3
20260906074546 69 270 0.0 0.0 0.00 0.00 0.00 89 973.3
20260906074033 69 270 0.0 0.0 0.00 0.00 0.00 89 973.2
20260906073534 69 270 0.0 0.0 0.00 0.00 0.00 89 973.2
20260906073033 69 270 0.0 0.0 0.00 0.00 0.00 89 973.2
20260906072533 69 270 0.0 0.0 0.00 0.00 0.00 89 973.1
20260906072032 69 270 0.0 0.0 0.00 0.00 0.00 89 973.1
20260906071532 70 270 0.0 0.0 0.00 0.00 0.00 89 973.2
20260906071030 70 270 0.0 0.0 0.00 0.00 0.00 88 973.4
20260906070529 70 270 0.0 0.0 0.00 0.00 0.00 89 973.5
20260906070029 70 270 0.0 0.0 0.00 0.00 0.00 88 973.4
20260906065529 70 270 0.0 0.0 0.00 0.00 0.00 88 973.5
20260906065028 70 270 0.0 0.0 0.00 0.00 0.00 88 973.5
20260906064526 70 270 0.0 0.0 0.00 0.00 0.00 88 973.6
20260906064027 70 270 0.0 0.0 0.00 0.00 0.00 88 973.6
20260906063527 70 270 0.0 0.0 0.00 0.00 0.00 87 973.6
20260906063026 70 270 0.0 0.9 0.00 0.00 0.00 87 973.7
20260906062525 70 270 0.0 1.7 0.00 0.00 0.00 87 973.6
20260906062025 71 270 0.0 1.7 0.00 0.00 0.00 87 973.7
20260906061525 71 270 0.0 0.0 0.00 0.00 0.00 87 973.7
20260906061024 71 270 0.0 0.0 0.00 0.00 0.00 87 973.7
20260906060525 71 270 0.0 1.7 0.00 0.00 0.00 87 973.7
20260906060025 71 270 0.0 1.7 0.00 0.00 0.00 87 973.8
20260906055524 71 270 0.0 1.7 0.00 0.00 0.00 86 973.8
20260906055024 71 270 0.9 1.7 0.00 0.00 0.00 86 973.8
20260906054523 71 270 0.0 0.0 0.00 0.00 0.00 86 973.8
20260906054022 71 270 0.0 0.0 0.00 0.00 0.00 86 973.9
20260906053522 71 270 0.0 0.0 0.00 0.00 0.00 86 973.9
20260906053022 71 270 0.0 0.0 0.00 0.00 0.00 86 973.9
20260906052521 71 270 0.0 0.0 0.00 0.00 0.00 85 973.8
20260906052020 71 270 0.0 0.0 0.00 0.00 0.00 85 973.8
20260906051523 71 270 0.0 0.0 0.00 0.00 0.00 85 973.8
20260906051019 71 270 0.0 0.0 0.00 0.00 0.00 84 973.7
20260906050518 71 270 0.0 0.0 0.00 0.00 0.00 84 973.6
20260906050018 72 270 0.0 0.0 0.00 0.00 0.00 84 973.6
20260906045517 72 270 0.0 0.0 0.00 0.00 0.00 84 973.6
20260906045018 72 270 0.0 0.0 0.00 0.00 0.00 84 973.6
20260906044516 72 270 0.0 0.0 0.00 0.00 0.00 83 973.6
20260906044015 72 270 0.0 0.0 0.00 0.00 0.00 83 973.6
20260906043514 72 270 0.0 2.6 0.00 0.00 0.00 83 973.6
20260906043016 72 270 0.0 2.6 0.00 0.00 0.00 83 973.7
20260906042513 72 270 0.0 0.9 0.00 0.00 0.00 82 973.6
20260906042013 73 270 0.0 0.9 0.00 0.00 0.00 82 973.7
20260906041512 73 270 0.0 0.0 0.00 0.00 0.00 82 973.7
20260906041013 73 270 0.0 0.0 0.00 0.00 0.00 82 973.6
20260906040510 73 270 0.0 1.7 0.00 0.00 0.00 81 973.7
20260906040009 73 270 0.0 1.7 0.00 0.00 0.00 81 973.7
20260906035513 74 270 0.0 0.0 0.00 0.00 0.00 80 973.8
20260906035009 74 270 0.0 0.0 0.00 0.00 0.00 79 973.8
20260906034512 74 270 0.0 0.0 0.00 0.00 0.00 79 973.8
20260906034009 74 270 0.0 0.0 0.00 0.00 0.00 79 973.8
20260906033507 74 270 0.0 0.0 0.00 0.00 0.00 79 973.9
20260906033008 75 270 0.0 0.0 0.00 0.00 0.00 78 974.0
20260906032507 75 270 0.0 0.0 0.00 0.00 0.00 78 973.9
20260906032008 75 270 0.0 1.7 0.00 0.00 0.00 78 973.8
20260906031507 75 270 0.0 1.7 0.00 0.00 0.00 78 973.8
20260906031007 75 270 0.0 1.7 0.00 0.00 0.00 78 973.8
20260906030506 75 270 0.0 0.0 0.00 0.00 0.00 78 973.9
20260906030006 75 270 0.0 0.0 0.00 0.00 0.00 78 973.8
20260906025510 75 270 0.0 0.0 0.00 0.00 0.00 78 973.8
20260906025007 75 270 0.0 0.0 0.00 0.00 0.00 77 973.8
20260906024506 75 270 0.0 0.0 0.00 0.00 0.00 77 973.6
20260906024007 75 270 0.0 0.0 0.00 0.00 0.00 76 973.6
20260906023506 75 270 0.0 0.0 0.00 0.00 0.00 76 973.6
20260906023006 76 270 0.0 0.0 0.00 0.00 0.00 76 973.5
20260906022506 76 270 0.0 0.0 0.00 0.00 0.00 75 973.5
20260906022006 76 270 0.0 1.7 0.00 0.00 0.00 75 973.5
20260906021506 76 270 0.0 1.7 0.00 0.00 0.00 75 973.4
20260906021006 76 270 0.0 1.7 0.00 0.00 0.00 74 973.4
20260906020505 77 270 0.0 1.7 0.00 0.00 0.00 74 973.4
20260906020006 77 270 0.0 1.7 0.00 0.00 0.00 73 973.3
20260906015504 77 270 0.9 1.7 0.00 0.00 0.00 72 973.2
20260906015005 77 270 0.0 1.7 0.00 0.00 0.00 72 973.2
20260906014512 77 270 0.0 0.0 0.00 0.00 0.00 71 973.1
20260906014004 78 270 0.0 0.9 0.00 0.00 0.00 71 973.1
20260906013504 78 270 0.0 0.9 0.00 0.00 0.00 71 973.1
20260906013004 78 270 0.0 0.0 0.00 0.00 0.00 70 973.0
20260906012506 78 270 0.0 0.0 0.00 0.00 0.00 70 972.9
20260906012005 78 270 0.0 0.0 0.00 0.00 0.00 70 972.9
20260906011504 79 270 0.0 0.0 0.00 0.00 0.00 70 972.8
20260906011005 79 270 0.0 0.9 0.00 0.00 0.00 69 972.7
20260906010504 79 270 0.0 1.7 0.00 0.00 0.00 69 972.6
20260906010010 79 270 0.0 1.7 0.00 0.00 0.00 68 972.6
20260906005503 80 270 0.0 0.0 0.00 0.00 0.00 67 972.6
20260906005006 80 270 0.0 0.0 0.00 0.00 0.00 67 972.7
20260906004503 80 270 0.0 0.0 0.00 0.00 0.00 67 972.6
20260906004002 80 270 0.0 0.9 0.00 0.00 0.00 66 972.5
20260906003502 80 270 0.0 2.6 0.00 0.00 0.00 66 972.5
20260906003003 81 270 0.0 2.6 0.00 0.00 0.00 65 972.4
20260906002502 81 270 0.0 0.9 0.00 0.00 0.00 65 972.5
20260906002005 81 270 0.0 0.9 0.00 0.00 0.00 64 972.4
20260906001502 81 270 0.0 0.9 0.00 0.00 0.00 65 972.2
20260906001002 82 270 0.0 0.9 0.00 0.00 0.00 63 972.2
20260906000502 82 270 0.0 2.6 0.00 0.00 0.00 63 972.1
20260906000002 82 270 0.9 2.6 0.00 0.00 0.00 63 972.1
20260905235502 82 270 0.0 0.0 0.00 0.00 0.00 63 972.0
20260905235002 83 270 0.0 1.7 0.00 0.00 0.00 63 971.9
20260905234501 83 270 0.0 3.5 0.00 0.00 0.00 62 972.0
20260905234100 83 270 0.0 3.5 0.00 0.00 0.00 62 972.0
20260905233600 84 270 0.0 0.0 0.00 0.00 0.00 62 972.0
20260905233000 84 270 0.0 1.7 0.00 0.00 0.00 61 972.1
20260905232603 84 270 0.0 2.6 0.00 0.00 0.00 60 972.0
20260905232501 84 270 0.0 2.6 0.00 0.00 0.00 61 972.1
20260905232100 85 270 0.0 2.6 0.00 0.00 0.00 60 972.0
20260905231600 85 270 0.0 2.6 0.00 0.00 0.00 61 972.0
20260905231100 85 271 0.0 2.6 0.00 0.00 0.00 61 972.0
20260905230604 85 271 0.9 2.6 0.00 0.00 0.00 60 972.0
20260905230118 85 270 0.0 0.9 0.00 0.00 0.00 60 972.0
20260905225559 85 270 0.0 0.9 0.00 0.00 0.00 60 972.0
20260905225100 86 270 0.0 0.9 0.00 0.00 0.00 59 972.0
20260905224600 86 270 0.0 0.9 0.00 0.00 0.00 59 972.0
20260905224058 87 270 0.0 3.5 0.00 0.00 0.00 58 972.1
20260905223559 87 270 0.0 3.5 0.00 0.00 0.00 56 972.0
20260905223059 87 234 0.9 2.6 0.00 0.00 0.00 56 972.0
20260905222559 87 234 0.9 2.6 0.00 0.00 0.00 56 972.0
20260905222059 87 244 0.0 2.6 0.00 0.00 0.00 58 971.9
20260905221558 87 244 0.0 1.7 0.00 0.00 0.00 57 971.9
20260905221059 88 244 0.0 3.5 0.00 0.00 0.00 58 971.8
20260905220559 88 244 0.9 3.5 0.00 0.00 0.00 57 971.8
20260905220058 88 244 0.0 2.6 0.00 0.00 0.00 57 971.8
20260905215601 88 244 0.0 2.6 0.00 0.00 0.00 57 971.8
20260905215057 88 244 0.0 3.5 0.00 0.00 0.00 57 971.8
20260905214556 89 252 0.0 3.5 0.00 0.00 0.00 57 971.7
20260905214056 89 252 0.9 3.5 0.00 0.00 0.00 55 971.7
20260905213556 89 252 0.9 5.2 0.00 0.00 0.00 56 971.6
20260905213058 89 262 0.9 3.5 0.00 0.00 0.00 55 971.5
20260905212557 90 263 1.7 3.5 0.00 0.00 0.00 55 971.4
20260905212057 89 22 0.0 5.2 0.00 0.00 0.00 56 971.4
20260905211558 89 21 0.9 5.2 0.00 0.00 0.00 56 971.4
20260905211058 89 262 0.0 3.5 0.00 0.00 0.00 57 971.4
20260905210558 89 262 0.0 4.3 0.00 0.00 0.00 55 971.5
20260905210057 89 61 0.9 4.3 0.00 0.00 0.00 55 971.4
20260905205555 89 23 0.0 6.1 0.00 0.00 0.00 55 971.5
20260905205059 89 22 1.7 6.1 0.00 0.00 0.00 55 971.5
20260905204554 89 273 1.7 4.3 0.00 0.00 0.00 54 971.5
20260905204057 89 228 0.0 2.6 0.00 0.00 0.00 54 971.4
20260905203556 89 232 0.9 5.2 0.00 0.00 0.00 55 971.5
20260905203100 89 232 0.9 5.2 0.00 0.00 0.00 54 971.4
20260905202553 90 234 1.7 3.5 0.00 0.00 0.00 52 971.5
20260905202053 90 216 0.9 4.3 0.00 0.00 0.00 52 971.5
20260905201604 90 109 0.9 5.2 0.00 0.00 0.00 52 971.4
20260905201053 90 5 0.9 5.2 0.00 0.00 0.00 52 971.3
20260905200553 91 360 0.9 5.2 0.00 0.00 0.00 50 971.2
20260905200057 90 5 0.9 5.2 0.00 0.00 0.00 51 971.2
20260905195555 90 233 1.7 8.7 0.00 0.00 0.00 50 971.0
20260905195052 90 226 1.7 7.0 0.00 0.00 0.00 50 971.1
20260905194552 91 63 1.7 6.1 0.00 0.00 0.00 49 971.1
20260905194052 92 227 0.9 4.3 0.00 0.00 0.00 49 971.1
20260905193551 91 222 0.9 6.1 0.00 0.00 0.00 49 971.1
20260905193051 91 132 1.7 7.8 0.00 0.00 0.00 49 971.1
20260905192550 91 253 1.7 7.8 0.00 0.00 0.00 49 971.4
20260905192052 91 223 1.7 7.8 0.00 0.00 0.00 49 971.6
20260905191549 92 209 1.7 7.8 0.00 0.00 0.00 47 971.6
20260905191048 92 228 1.7 7.8 0.00 0.00 0.00 50 971.6
20260905190547 92 240 2.6 6.1 0.00 0.00 0.00 49 971.7
20260905190046 91 227 0.9 6.1 0.00 0.00 0.00 51 971.8
20260905185545 92 209 1.7 5.2 0.00 0.00 0.00 50 971.9
20260905185044 92 246 0.9 6.1 0.00 0.00 0.00 52 972.2
20260905184547 91 251 2.6 6.1 0.00 0.00 0.00 55 972.4
20260905184040 91 245 0.9 4.3 0.00 0.00 0.00 56 972.5
20260905183540 90 251 1.7 7.0 0.00 0.00 0.00 56 972.5
20260905183048 90 259 2.6 7.0 0.00 0.00 0.00 56 972.7
20260905182537 89 254 0.9 7.0 0.00 0.00 0.00 61 972.8
20260905182040 89 246 2.6 7.0 0.00 0.00 0.00 60 972.9
20260905181536 88 202 1.7 5.2 0.00 0.00 0.00 60 972.9
20260905181035 88 267 0.9 5.2 0.00 0.00 0.00 61 972.9
20260905180539 88 243 1.7 6.1 0.00 0.00 0.00 61 972.9
20260905180034 88 246 1.7 6.1 0.00 0.00 0.00 61 973.0
20260905175532 87 231 0.0 3.5 0.00 0.00 0.00 63 973.1
20260905175031 87 231 0.0 3.5 0.00 0.00 0.00 62 973.2
20260905174532 86 269 1.7 3.5 0.00 0.00 0.00 62 973.1
20260905174132 86 269 0.9 3.5 0.00 0.00 0.00 61 972.9
20260905173531 86 15 0.9 7.8 0.00 0.00 0.00 61 972.9
20260905173030 86 5 1.7 7.8 0.00 0.00 0.00 61 973.0
20260905172530 87 271 1.7 6.1 0.00 0.00 0.00 60 973.2
20260905172030 87 271 0.9 6.1 0.00 0.00 0.00 61 973.0
20260905171531 87 272 1.7 5.2 0.00 0.00 0.00 61 972.9
20260905171028 87 273 0.9 3.5 0.00 0.00 0.00 61 973.0
20260905170528 87 271 0.9 3.5 0.00 0.00 0.00 61 973.0
20260905170027 87 9 0.0 4.3 0.00 0.00 0.00 62 973.3
20260905165526 87 11 2.6 4.3 0.00 0.00 0.00 62 973.5
20260905165026 86 271 0.9 3.5 0.00 0.00 0.00 62 973.5
20260905164525 86 271 0.9 5.2 0.00 0.00 0.00 62 973.7
20260905164025 86 15 1.7 5.2 0.00 0.00 0.00 62 973.8
20260905163528 87 9 1.7 7.0 0.00 0.00 0.00 63 973.9
20260905163026 87 5 1.7 5.2 0.00 0.00 0.00 63 973.9
20260905162526 86 270 0.9 6.1 0.00 0.00 0.00 63 973.9
20260905162024 85 270 0.9 5.2 0.00 0.00 0.00 65 974.1
20260905161526 85 269 0.9 5.2 0.00 0.00 0.00 65 974.2
20260905161028 85 271 1.7 5.2 0.00 0.00 0.00 65 974.0
20260905160528 84 240 0.0 1.7 0.00 0.00 0.00 68 974.0
20260905160025 85 240 0.0 8.7 0.00 0.00 0.00 65 974.3
20260905155529 86 202 2.6 8.7 0.00 0.00 0.00 62 974.6
20260905155023 87 265 1.7 3.5 0.00 0.00 0.00 63 974.4
20260905154522 86 254 0.0 3.5 0.00 0.00 0.00 63 974.6
20260905154021 85 254 0.9 3.5 0.00 0.00 0.00 67 974.8
20260905153521 84 253 0.9 3.5 0.00 0.00 0.00 67 974.8
20260905153024 84 253 0.9 4.3 0.00 0.00 0.00 67 974.7
20260905152520 84 256 0.0 4.3 0.00 0.00 0.00 67 974.8
20260905152023 84 223 0.9 4.3 0.00 0.00 0.00 67 974.7
20260905151528 84 226 1.7 5.2 0.00 0.00 0.00 67 974.9
20260905151020 84 219 1.7 6.1 0.00 0.00 0.00 68 974.8
20260905150520 84 171 1.7 9.6 0.00 0.00 0.00 67 974.7
20260905150022 84 210 2.6 9.6 0.00 0.00 0.00 68 974.7
20260905145518 84 219 1.7 7.8 0.00 0.00 0.00 69 974.7
20260905145019 85 58 0.0 3.5 0.00 0.00 0.00 70 974.5
20260905144527 85 57 0.9 5.2 0.00 0.00 0.00 71 974.3
20260905144018 85 36 1.7 5.2 0.00 0.00 0.00 71 974.1
20260905143518 85 14 0.9 5.2 0.00 0.00 0.00 70 974.1
20260905143018 85 12 1.7 5.2 0.00 0.00 0.00 70 974.2
20260905142520 85 265 1.7 5.2 0.00 0.00 0.00 70 974.2
20260905142018 85 36 1.7 6.1 0.00 0.00 0.00 69 974.1
20260905141517 85 43 0.9 6.1 0.00 0.00 0.00 70 974.1
20260905141016 85 360 0.9 5.2 0.00 0.00 0.00 70 974.0
20260905140517 85 27 0.9 4.3 0.00 0.00 0.00 70 974.0
20260905140017 85 27 0.9 5.2 0.00 0.00 0.00 69 973.9
20260905135518 85 16 1.7 5.2 0.00 0.00 0.00 69 973.9
20260905135016 85 16 1.7 5.2 0.00 0.00 0.00 69 974.0
20260905134515 85 33 0.9 6.1 0.00 0.00 0.00 70 974.0
20260905134013 84 215 2.6 6.1 0.00 0.00 0.00 71 974.0
20260905133511 83 271 1.7 5.2 0.00 0.00 0.00 72 974.0
20260905133010 83 227 1.7 4.3 0.00 0.00 0.00 72 974.0
20260905132510 82 5 1.7 4.3 0.00 0.00 0.00 73 973.9
20260905132009 82 263 1.7 4.3 0.00 0.00 0.00 73 974.0
20260905131507 82 239 1.7 6.1 0.00 0.00 0.00 73 973.8
20260905131006 82 275 0.9 7.0 0.00 0.00 0.00 73 973.9
20260905130506 81 232 1.7 6.1 0.00 0.00 0.00 74 974.0
20260905130004 81 263 1.7 5.2 0.00 0.00 0.00 75 973.8
20260905125504 80 249 0.9 5.2 0.00 0.00 0.00 76 973.9
20260905125002 80 246 0.9 5.2 0.00 0.00 0.00 77 974.0
20260905124503 79 28 1.7 7.0 0.00 0.00 0.00 77 973.9
20260905124001 79 13 1.7 7.0 0.00 0.00 0.00 77 974.0
20260905123600 79 271 1.7 5.2 0.00 0.00 0.00 78 974.0
20260905123105 78 275 0.9 5.2 0.00 0.00 0.00 79 973.9
20260905122557 78 265 0.9 5.2 0.00 0.00 0.00 80 973.9
20260905122100 77 269 1.7 6.1 0.00 0.00 0.00 80 974.0
20260905121554 77 157 1.7 7.8 0.00 0.00 0.00 81 974.1
20260905121053 76 200 0.9 4.3 0.00 0.00 0.00 81 974.1
20260905120552 76 273 1.7 5.2 0.00 0.00 0.00 82 974.0
20260905120051 76 275 1.7 8.7 0.00 0.00 0.00 82 974.0
20260905115554 75 360 1.7 8.7 0.00 0.00 0.00 82 973.9
20260905115053 75 275 0.9 5.2 0.00 0.00 0.00 83 973.9
20260905114551 75 275 1.7 5.2 0.00 0.00 0.00 83 973.9
20260905114050 75 244 1.7 5.2 0.00 0.00 0.00 83 973.9
20260905113550 75 275 1.7 5.2 0.00 0.00 0.00 83 973.8
20260905113051 75 5 1.7 5.2 0.00 0.00 0.00 83 973.7
20260905112549 75 34 0.9 5.2 0.00 0.00 0.00 83 973.7
20260905112048 75 270 1.7 5.2 0.00 0.00 0.00 83 973.8
20260905111553 75 53 1.7 5.2 0.00 0.00 0.00 83 973.9